Date,TemperatureHighF,TemperatureAvgF,TemperatureLowF,DewpointHighF,DewpointAvgF,DewpointLowF,HumidityHigh,HumidityAvg,HumidityLow,PressureMaxIn,PressureMinIn,WindSpeedMaxMPH,WindSpeedAvgMPH,GustSpeedMaxMPH,PrecipitationSumIn
2012-1-1,66.9,54.4,46.5,54.4,48.4,42.8,90,81,56,30.31,30.23,10,2,15,0.00
2012-1-2,64.8,58.2,50.6,56.7,48.1,39.5,94,71,48,30.37,30.14,14,7,19,0.00
2012-1-3,60.1,55.7,46.8,48.0,43.9,40.7,86,65,53,30.45,30.34,17,6,21,0.00
2012-1-4,62.2,51.8,42.7,53.9,44.8,38.6,89,78,56,30.43,30.30,12,4,18,0.00
2012-1-5,69.0,57.0,45.7,53.0,43.6,27.7,91,66,23,30.41,30.01,24,9,36,0.00
2012-1-6,63.4,56.9,47.4,49.8,45.6,39.8,77,66,49,30.33,29.98,20,7,28,0.00
2012-1-7,61.3,51.4,42.4,48.6,42.9,38.5,91,74,51,30.41,30.30,6,2,8,0.00
2012-1-8,62.9,51.0,40.7,50.6,43.4,36.9,92,76,54,30.36,30.24,6,3,8,0.00
2012-1-9,58.8,48.7,40.7,47.2,41.8,37.1,92,78,59,30.44,30.25,6,3,8,0.00
2012-1-10,60.0,49.2,40.9,51.2,43.5,38.4,92,81,66,30.47,30.39,8,2,10,0.00
2012-1-11,61.0,50.4,42.1,47.9,43.5,39.4,91,78,54,30.50,30.42,5,2,6,0.00
2012-1-12,58.4,52.6,45.1,45.4,44.0,40.6,85,73,59,30.50,30.40,4,2,5,0.00
2012-1-13,57.3,51.4,45.4,45.7,43.4,40.6,84,75,62,30.40,30.18,8,2,12,0.00
2012-1-14,57.5,49.0,43.4,46.9,41.3,32.2,89,76,39,30.18,30.05,7,3,9,0.00
2012-1-15,57.3,47.1,39.6,48.6,41.3,36.6,91,81,63,30.09,30.00,9,3,11,0.00
2012-1-16,56.7,48.7,41.1,47.5,42.8,37.3,89,81,61,30.01,29.86,8,4,13,0.00
2012-1-17,58.4,51.9,45.2,51.5,47.1,41.6,92,84,67,30.42,30.01,9,4,17,0.17
2012-1-18,59.6,49.8,42.7,48.5,43.5,39.4,92,80,56,30.59,30.42,5,3,8,0.00
2012-1-19,58.4,50.2,40.8,50.8,44.5,38.1,91,81,67,30.64,30.51,11,4,14,0.00
2012-1-20,61.8,52.6,43.3,54.5,47.4,39.9,92,83,66,30.51,30.32,10,4,11,0.00
2012-1-21,63.6,52.7,43.9,51.2,44.0,39.6,95,74,44,30.34,30.25,10,3,15,0.00
2012-1-22,64.0,52.5,44.0,52.6,45.0,39.2,92,76,53,30.26,30.09,11,3,14,0.00
2012-1-23,62.5,53.0,44.6,51.7,44.8,40.8,92,75,52,30.10,30.00,11,4,15,0.00
2012-1-24,60.0,52.4,43.6,53.0,46.6,40.1,90,81,67,30.21,30.10,5,2,11,0.00
2012-1-25,59.6,49.9,41.5,51.5,44.5,38.6,91,82,65,30.20,30.07,5,3,7,0.00
2012-1-26,58.3,51.7,43.2,50.6,46.1,39.8,92,82,68,30.10,30.03,5,2,6,0.00
2012-1-27,59.5,52.0,45.0,50.3,46.2,40.8,92,81,64,30.16,30.08,9,4,13,0.00
2012-1-28,53.5,50.9,45.4,48.9,46.0,39.9,91,83,71,30.21,30.13,10,5,15,0.10
2012-1-29,46.3,42.7,40.2,41.0,38.7,36.3,92,86,74,30.12,30.02,16,3,16,0.45
2012-1-30,53.2,46.4,39.7,40.3,36.7,32.5,88,70,46,30.23,30.05,13,4,18,0.00
2012-1-31,56.5,47.2,36.6,47.4,39.8,33.5,90,76,61,30.23,29.98,14,6,18,0.00
2012-2-1,58.1,50.6,41.5,48.7,41.9,37.1,86,72,62,30.00,29.78,11,3,13,0.00
2012-2-2,49.2,44.2,42.1,45.0,38.8,36.2,90,81,71,29.88,29.75,18,10,26,0.34
2012-2-3,43.0,40.1,33.3,37.0,35.4,31.2,93,84,71,30.14,29.88,17,6,25,0.28
2012-2-4,40.4,34.5,31.3,32.6,28.7,-99.9,92,82,58,30.30,30.12,8,3,12,0.07
2012-2-5,46.7,36.7,29.2,37.3,30.9,20.6,93,82,36,30.32,30.10,10,2,14,0.09
2012-2-6,52.9,44.6,36.8,41.1,35.7,31.0,91,72,50,30.18,30.06,15,4,20,0.12
2012-2-7,50.9,44.3,37.3,36.1,28.2,19.6,89,55,29,30.07,29.92,14,6,20,0.01
2012-2-8,45.1,41.9,36.5,38.4,32.9,27.9,92,71,60,30.24,30.03,13,4,15,0.17
2012-2-9,50.8,46.3,42.7,38.1,35.8,31.7,77,67,52,30.29,30.17,9,4,13,0.00
2012-2-10,54.3,46.5,39.3,39.9,33.9,26.2,82,62,48,30.18,30.07,13,5,18,0.00
2012-2-11,48.0,40.3,34.3,34.3,30.2,24.2,86,68,40,30.14,30.02,11,4,19,0.01
2012-2-12,44.7,38.3,33.8,36.2,32.8,28.0,91,81,53,30.16,30.09,11,4,17,0.02
2012-2-13,46.9,38.8,33.6,35.5,29.1,20.3,91,71,36,30.21,30.14,9,3,12,0.02
2012-2-14,50.0,42.3,33.8,40.6,34.9,25.5,89,75,55,30.15,29.99,10,4,14,0.08
2012-2-15,53.6,46.4,36.8,43.5,37.2,33.3,91,72,48,30.26,30.13,13,6,17,0.02
2012-2-16,59.3,49.9,42.4,46.5,41.2,35.3,86,73,50,30.20,30.10,6,2,8,0.00
2012-2-17,56.9,47.2,40.2,47.3,42.0,36.6,92,83,60,30.28,30.21,6,3,8,0.02
2012-2-18,54.9,47.0,40.1,48.1,42.8,37.7,92,86,72,30.25,30.13,5,3,6,0.02
2012-2-19,58.6,48.7,40.4,48.7,42.8,38.3,93,81,53,30.20,30.12,7,3,11,0.01
2012-2-20,56.5,48.0,41.0,43.3,38.7,33.9,92,71,50,30.31,30.19,13,5,17,0.01
2012-2-21,54.5,47.1,39.3,43.5,38.6,34.6,87,73,48,30.32,30.26,13,4,18,0.00
2012-2-22,57.6,51.1,43.6,43.6,38.7,30.8,85,64,36,30.28,30.23,13,5,17,0.02
2012-2-23,64.1,49.8,37.7,48.5,37.8,28.9,75,64,32,30.34,30.25,5,2,8,0.00
2012-2-24,59.6,51.3,41.5,51.8,43.3,34.6,85,74,63,30.38,30.31,8,3,13,0.00
2012-2-25,59.3,51.8,41.9,50.9,44.0,35.3,86,75,60,30.33,30.10,6,4,10,0.00
2012-2-26,67.0,55.5,46.0,56.0,48.7,42.1,91,79,42,30.13,29.99,7,2,10,0.00
2012-2-27,62.5,55.2,47.5,48.5,43.0,37.1,85,65,40,30.23,30.13,13,5,20,0.00
2012-2-28,59.3,51.3,43.2,49.2,44.0,38.4,87,77,51,30.25,30.19,6,3,8,0.00
2012-2-29,60.3,51.2,41.4,51.8,43.8,38.2,90,77,54,30.23,30.15,10,4,14,0.00
2012-3-1,59.3,51.0,41.9,51.9,45.1,36.6,89,80,74,30.31,30.16,6,3,11,0.00
2012-3-2,58.9,52.0,43.2,50.5,46.8,41.0,93,83,72,30.35,30.29,7,3,11,0.00
2012-3-3,63.2,56.0,50.3,53.1,48.4,44.3,90,76,52,30.34,30.24,12,5,15,0.00
2012-3-4,62.3,55.2,45.7,54.9,48.2,41.1,86,78,65,30.31,30.11,11,3,14,0.00
2012-3-5,61.7,52.7,46.7,49.8,46.6,44.5,92,80,59,30.28,30.11,12,4,15,0.03
2012-3-6,54.2,47.1,41.8,44.9,42.2,39.4,93,84,65,30.27,30.14,7,2,13,0.35
2012-3-7,56.0,49.4,41.6,42.8,40.5,37.6,90,73,53,30.31,30.22,13,4,18,0.06
2012-3-8,58.2,50.5,41.5,49.9,38.9,32.6,87,66,44,30.29,30.17,18,6,29,0.00
2012-3-9,55.4,52.6,49.9,41.9,37.5,31.5,67,57,47,30.42,30.29,16,9,24,0.00
2012-3-10,60.8,54.7,46.7,41.2,37.3,29.3,74,53,32,30.42,30.31,12,7,19,0.00
2012-3-11,63.9,55.4,45.8,46.1,39.2,33.6,81,57,33,30.31,30.18,12,5,18,0.00
2012-3-15,61.7,56.7,45.4,53.4,49.4,41.9,91,77,64,30.37,30.33,5,2,10,0.01
2012-3-16,69.9,57.6,45.8,52.9,44.6,37.3,87,65,34,30.35,30.20,8,4,14,0.00
2012-3-17,60.9,57.8,52.8,55.4,53.4,48.3,92,85,80,30.25,30.18,11,4,15,0.00
2012-3-18,63.4,59.2,52.6,56.5,51.6,40.2,92,77,51,30.24,30.13,9,4,12,0.00
2012-3-19,59.2,54.4,48.8,48.3,45.6,39.1,86,73,60,30.39,30.24,14,7,17,0.00
2012-3-20,55.3,52.9,49.9,52.1,47.4,41.3,89,82,64,30.36,30.13,17,10,22,0.19
2012-3-21,67.0,59.3,54.9,58.0,55.1,50.9,93,86,71,30.23,30.10,9,3,10,0.00
2012-3-22,62.9,57.7,48.4,54.4,50.0,41.7,89,75,59,30.26,30.10,10,4,14,0.00
2012-3-23,60.7,53.0,42.2,52.3,45.7,38.3,88,76,63,30.26,30.18,7,3,13,0.00
2012-3-24,64.4,54.8,46.3,52.7,47.5,41.7,88,77,49,30.23,30.15,8,2,11,0.00
2012-3-25,65.8,56.0,45.0,54.1,48.2,42.1,90,76,58,30.27,30.21,6,2,8,0.00
2012-3-26,70.2,57.7,48.6,54.0,45.7,42.1,85,66,38,30.27,30.21,9,4,13,0.00
2012-3-27,70.2,57.9,48.5,53.3,47.3,41.5,86,69,46,30.28,30.22,8,2,13,0.00
2012-3-28,68.8,57.7,49.0,55.7,47.6,42.4,96,71,42,30.27,30.17,10,3,12,0.08
2012-3-29,71.1,58.6,48.5,53.9,44.9,35.8,80,62,29,30.20,30.04,8,3,14,0.00
2012-3-30,66.4,57.9,47.8,54.8,47.2,39.8,83,68,51,30.07,29.88,12,3,18,0.00
2012-3-31,65.9,57.7,48.5,57.2,50.3,42.3,85,77,59,29.91,29.79,7,3,13,0.00
2012-4-1,63.9,57.7,49.6,58.7,50.7,40.0,91,78,64,29.83,29.74,6,3,10,0.00
2012-4-2,63.6,58.9,52.8,58.8,55.2,49.0,93,88,79,29.79,29.73,7,2,11,0.00
2012-4-3,65.0,61.1,58.5,58.6,57.2,56.3,93,87,76,29.77,29.68,6,3,11,0.02
2012-4-4,65.0,61.4,59.2,57.7,56.1,55.0,90,83,74,29.74,29.66,8,4,11,0.00
2012-4-5,63.7,59.1,53.5,57.5,54.7,50.9,93,86,76,29.80,29.71,7,3,10,0.01
2012-4-6,62.5,59.3,54.4,55.5,52.1,44.3,91,77,58,29.87,29.75,13,7,17,0.00
2012-4-7,60.4,58.0,53.5,51.3,47.1,40.6,80,67,48,29.88,29.80,19,10,24,0.00
2012-4-8,63.7,59.1,54.3,49.8,45.1,41.2,73,60,45,29.95,29.85,15,7,21,0.00
2012-4-9,66.4,57.9,49.9,54.4,49.0,42.9,86,73,47,29.97,29.83,8,3,12,0.00
2012-4-10,69.8,58.8,52.4,58.0,52.4,47.9,89,80,57,29.83,29.61,15,3,22,0.04
2012-4-11,65.8,60.3,54.2,52.1,44.6,35.8,79,58,33,29.82,29.67,13,7,19,0.00
2012-4-12,62.0,56.5,48.8,56.0,50.7,41.7,92,81,69,29.80,29.56,6,2,9,0.34
2012-4-13,61.0,56.6,52.8,54.9,49.6,43.7,93,78,55,29.69,29.49,13,5,19,0.37
2012-4-14,61.5,58.7,55.9,53.3,48.3,42.8,82,69,57,29.68,29.50,19,9,22,0.07
2012-4-15,56.6,53.1,48.1,49.2,46.4,42.6,90,78,66,29.75,29.52,13,4,18,0.20
2012-4-16,56.7,51.7,46.0,47.2,44.0,39.9,91,76,56,29.99,29.74,10,3,14,0.06
2012-4-17,59.7,54.5,49.7,49.8,42.4,35.3,81,65,43,30.00,29.89,13,7,19,0.00
2012-4-18,62.3,57.6,50.4,53.1,47.4,36.7,86,70,39,29.89,29.58,16,6,21,0.00
2012-4-19,65.1,61.4,53.4,54.4,48.8,44.2,85,64,51,29.62,29.50,17,10,23,0.00
2012-4-20,65.0,60.8,56.7,55.4,48.7,40.6,83,65,42,29.85,29.62,13,5,15,0.00
2012-4-21,67.9,60.7,52.1,58.5,55.4,49.3,90,83,63,29.93,29.82,10,2,16,0.00
2012-4-22,69.5,61.1,56.8,58.2,55.6,52.8,93,82,59,29.98,29.89,12,3,15,0.00
2012-4-23,63.8,59.3,54.7,58.5,55.4,52.8,94,87,76,29.98,29.79,7,3,10,0.14
2012-4-24,64.9,60.8,58.0,57.7,45.3,31.9,90,59,30,29.94,29.74,16,8,25,0.00
2012-4-25,65.8,58.2,48.4,58.5,50.7,39.8,89,76,61,29.94,29.77,7,3,10,0.00
2012-4-26,69.3,62.6,54.1,61.5,56.5,47.1,91,81,67,29.88,29.76,7,2,8,0.00
2012-4-27,81.6,69.6,63.1,62.1,54.5,46.3,82,60,38,29.87,29.79,10,2,10,0.00
2012-4-28,74.2,64.7,59.5,61.9,57.2,49.4,93,77,52,29.82,29.66,17,4,28,0.09
2012-4-29,64.7,61.7,58.2,57.6,54.3,50.2,89,77,68,29.96,29.81,13,6,19,0.00
2012-4-30,63.6,60.6,58.6,55.9,51.0,44.5,84,71,51,29.99,29.88,14,8,20,0.00
2012-5-1,65.6,59.2,51.5,56.5,53.0,47.9,92,80,71,30.05,29.98,7,3,11,0.00
2012-5-2,66.1,59.5,51.3,56.1,52.2,46.1,88,77,66,30.06,29.99,7,2,9,0.00
2012-5-3,65.2,59.7,51.3,57.9,53.8,47.6,87,81,68,30.03,29.90,7,3,11,0.00
2012-5-4,66.4,63.0,60.9,60.7,58.2,55.7,88,84,69,29.92,29.81,11,6,17,0.00
2012-5-5,68.2,63.8,61.6,59.8,57.9,54.1,91,82,62,29.86,29.81,12,5,20,0.00
2012-5-6,66.1,62.6,59.0,59.9,57.2,52.3,90,83,67,30.07,29.81,12,6,20,0.09
2012-5-7,67.0,60.6,52.4,61.6,56.2,48.8,91,85,76,30.14,30.05,6,3,14,0.00
2012-5-8,69.9,63.7,58.2,60.5,57.8,53.5,94,81,68,30.13,30.05,7,2,14,0.00
2012-5-9,74.3,65.7,56.7,62.6,52.3,30.4,81,64,21,30.15,30.04,8,3,12,0.00
2012-5-10,79.1,69.5,58.5,61.0,51.6,42.9,67,54,30,30.26,30.15,7,3,12,0.00
2012-5-11,75.7,68.8,60.5,59.2,52.5,47.1,71,57,39,30.29,30.24,8,3,14,0.00
2012-5-12,73.2,68.0,60.4,62.9,54.8,46.9,74,63,50,30.29,30.18,7,3,15,0.00
2012-5-13,75.2,69.2,59.7,62.7,54.5,-99.9,83,61,48,30.20,29.98,7,2,8,0.01
2012-5-14,74.3,67.4,63.0,61.1,54.2,46.4,87,64,38,30.06,29.94,10,5,18,0.05
2012-5-15,70.8,65.4,57.1,59.3,56.2,53.3,89,73,59,30.09,29.98,9,3,13,0.01
2012-5-16,69.2,62.2,56.6,57.3,52.5,47.1,87,71,54,30.20,30.08,9,3,14,0.00
2012-5-17,69.6,61.9,51.7,58.1,51.0,46.0,81,68,50,30.18,29.92,10,4,14,0.00
2012-5-18,75.8,67.6,60.7,62.6,57.4,52.9,82,70,53,29.93,29.74,10,4,15,0.00
2012-5-19,70.5,67.2,64.5,64.5,61.3,58.7,87,81,75,29.79,29.72,9,3,13,0.00
2012-5-20,69.9,66.5,62.7,62.8,57.4,47.3,87,73,45,29.75,29.64,16,8,22,0.03
2012-5-21,68.5,63.2,57.2,56.5,46.6,40.7,77,56,38,29.90,29.69,20,10,26,0.01
2012-5-22,73.1,66.2,62.8,59.4,51.2,44.9,83,59,43,30.06,29.88,17,9,26,0.00
2012-5-23,77.0,69.0,64.2,60.9,55.6,49.3,80,63,41,30.14,30.03,8,4,13,0.00
2012-5-24,71.7,66.4,58.7,63.6,58.4,51.1,87,76,61,30.14,30.06,7,2,10,0.00
2012-5-25,73.2,67.3,59.3,64.6,59.7,52.2,87,77,60,30.07,29.93,6,2,9,0.00
2012-5-26,73.6,68.1,61.6,64.5,59.6,54.3,84,74,60,30.01,29.94,6,2,9,0.00
2012-5-27,75.1,68.7,60.2,67.1,59.2,50.4,89,73,43,30.04,29.96,7,2,12,0.00
2012-5-28,77.6,69.1,61.8,66.3,60.5,53.8,85,75,49,30.00,29.93,8,3,10,0.00
2012-5-29,79.4,70.8,63.0,66.7,62.8,54.2,86,76,43,30.01,29.94,7,2,10,0.00
2012-5-30,75.3,70.3,63.4,67.3,63.8,58.5,87,80,68,30.13,30.01,7,2,10,0.00
2012-5-31,78.7,71.7,63.8,68.3,60.3,54.3,82,68,48,30.14,30.06,7,3,11,0.00
2012-6-1,78.6,72.6,66.0,68.1,60.8,55.3,78,67,47,30.09,29.97,7,3,10,0.00
2012-6-2,78.4,73.0,65.6,69.2,61.5,53.9,80,67,49,29.98,29.91,9,3,12,0.00
2012-6-3,79.8,72.4,66.1,69.1,61.3,49.8,89,69,43,30.01,29.89,12,2,12,0.06
2012-6-4,78.1,71.7,66.9,66.0,64.0,58.2,89,77,56,30.04,29.94,8,4,13,0.00
2012-6-5,75.9,71.4,66.1,65.3,63.4,61.4,86,76,63,30.07,29.97,7,2,10,0.00
2012-6-6,77.9,72.0,64.0,70.5,65.1,57.6,87,79,72,29.98,29.82,5,2,7,0.00
2012-6-7,84.7,74.1,64.5,71.5,64.7,55.7,87,73,45,29.84,29.64,8,2,12,0.00
2012-6-8,81.8,75.7,69.6,69.9,65.5,60.2,85,71,57,30.00,29.68,10,4,17,0.00
2012-6-9,78.2,72.4,67.6,65.0,61.2,56.1,80,68,47,30.06,29.98,9,5,14,0.00
2012-6-10,76.5,73.3,71.3,70.6,68.1,65.0,87,84,80,30.04,29.85,10,5,15,0.00
2012-6-11,83.4,74.4,69.3,70.6,67.9,63.7,90,81,53,29.86,29.68,10,4,15,0.00
2012-6-12,78.1,71.9,65.9,67.1,56.5,42.9,85,61,31,29.99,29.71,13,6,19,0.00
2012-6-13,76.7,70.7,61.9,63.7,57.9,48.6,72,64,56,30.07,29.99,8,4,13,0.00
2012-6-14,79.8,71.5,62.6,65.9,59.5,47.2,84,68,34,30.07,29.99,12,4,14,0.00
2012-6-15,78.9,71.9,62.3,67.9,58.1,42.1,81,63,45,30.12,30.06,7,3,10,0.00
2012-6-16,77.5,72.0,63.2,69.0,63.0,50.5,84,74,52,30.14,30.06,7,3,11,0.00
2012-6-17,80.9,73.6,65.3,69.7,64.6,56.3,85,74,53,30.10,30.00,8,3,17,0.00
2012-6-18,78.6,73.9,67.2,70.8,65.5,58.9,87,75,53,30.04,29.94,10,3,13,0.00
2012-6-19,91.4,77.6,71.5,72.0,65.1,58.3,81,66,39,29.99,29.84,10,4,12,0.00
2012-6-20,90.0,79.2,72.0,73.2,69.8,64.8,90,74,46,29.93,29.80,10,3,12,0.04
2012-6-21,79.6,76.0,73.5,73.0,70.9,69.1,90,84,77,29.98,29.88,10,4,17,0.00
2012-6-22,86.5,77.8,72.2,71.7,64.8,59.3,90,66,44,30.14,29.98,13,6,17,0.00
2012-6-23,87.1,75.9,68.6,71.1,63.7,55.2,79,67,39,30.19,30.12,11,5,14,0.00
2012-6-24,85.8,77.0,70.2,71.5,64.5,58.2,77,66,42,30.17,30.09,10,3,15,0.00
2012-6-25,81.6,76.9,70.2,71.0,65.2,57.4,82,67,49,30.13,30.09,7,3,11,0.00
2012-6-26,84.5,77.4,68.6,73.4,66.0,54.6,82,68,41,30.15,30.11,6,3,10,0.00
2012-6-27,85.5,78.7,71.0,72.9,65.8,57.5,75,65,40,30.13,29.99,7,3,10,0.00
2012-6-28,86.1,79.1,73.3,75.4,66.0,53.3,90,66,42,29.99,29.85,8,3,11,0.00
2012-6-29,89.1,80.8,71.1,77.9,70.2,62.3,90,71,49,29.88,29.83,4,1,8,0.00
2012-6-30,83.7,79.8,72.9,76.1,70.1,59.4,88,73,48,29.89,29.83,6,2,9,0.00
2012-7-1,83.6,77.0,69.3,74.8,68.6,58.7,88,76,60,30.03,29.82,22,4,25,0.01
2012-7-2,77.5,71.8,63.7,66.0,62.3,58.9,86,73,56,30.11,30.03,7,3,11,0.00
2012-7-3,79.2,74.1,67.2,67.3,65.0,62.1,85,73,64,30.09,29.99,6,2,12,0.00
2012-7-4,79.0,74.9,67.9,70.1,66.8,62.3,84,76,62,30.00,29.83,9,3,14,0.00
2012-7-5,80.7,75.2,68.7,70.1,67.7,64.3,88,78,68,29.86,29.75,8,3,12,0.00
2012-7-6,83.2,77.1,69.9,71.8,69.0,66.0,88,76,60,29.95,29.83,8,4,15,0.00
2012-7-7,83.3,76.7,70.1,72.7,69.9,66.0,88,80,61,29.96,29.85,9,4,13,0.00
2012-7-8,82.5,76.5,69.2,73.9,70.6,65.8,90,82,69,29.97,29.85,8,3,11,0.00
2012-7-9,82.0,77.4,72.0,72.4,69.4,64.7,87,77,58,29.98,29.90,7,3,9,0.00
2012-7-10,82.3,77.4,70.6,74.0,71.1,66.5,89,81,73,29.98,29.90,7,2,11,0.00
2012-7-11,83.9,79.3,72.5,75.3,72.8,69.1,90,81,68,30.05,29.94,7,3,11,0.00
2012-7-12,83.0,78.2,73.7,72.0,67.5,64.0,86,70,56,30.14,30.04,9,5,14,0.00
2012-7-13,82.8,77.0,69.9,73.7,69.5,63.8,86,78,72,30.08,29.87,7,2,13,0.00
2012-7-14,83.4,77.8,71.9,73.5,68.1,62.3,88,73,56,30.00,29.81,19,6,24,0.00
2012-7-15,84.7,76.4,71.9,66.8,63.0,59.7,72,64,45,30.23,30.01,11,5,15,0.00
2012-7-16,81.5,75.1,68.0,65.9,62.7,58.9,74,66,51,30.32,30.24,10,4,12,0.00
2012-7-17,87.5,77.2,67.0,71.1,64.6,60.6,84,66,47,30.33,30.21,11,3,14,0.00
2012-7-18,90.4,79.5,70.1,71.7,64.4,55.6,80,61,36,30.23,30.06,13,4,16,0.00
2012-7-19,84.7,77.9,68.5,71.1,63.7,51.1,80,62,51,30.07,29.91,6,3,10,0.00
2012-7-20,86.8,77.3,68.4,72.7,63.3,48.4,83,63,32,29.96,29.89,10,3,18,0.00
2012-7-21,83.3,77.3,72.5,69.4,61.7,55.9,88,61,40,30.11,29.94,14,6,22,0.00
2012-7-22,79.8,74.9,69.7,65.1,60.3,56.7,66,61,52,30.11,30.04,6,2,8,0.00
2012-7-23,80.1,73.9,66.5,65.9,59.6,52.3,86,62,44,30.08,29.98,7,2,12,0.08
2012-7-24,83.7,74.4,63.5,64.5,56.0,43.1,72,54,25,30.03,29.98,9,3,15,0.00
2012-7-25,81.1,75.1,66.6,69.5,63.0,55.0,75,66,50,30.02,29.97,11,4,16,0.00
2012-7-26,94.1,81.8,71.2,71.3,63.0,51.9,82,57,27,30.04,29.91,11,4,16,0.00
2012-7-27,90.4,82.0,77.6,75.9,68.3,59.3,91,65,42,29.99,29.81,11,3,14,0.00
2012-7-28,84.5,79.7,74.3,75.9,74.1,71.3,92,83,74,29.94,29.83,10,3,13,0.00
2012-7-29,85.0,79.1,73.4,74.3,70.7,65.2,88,76,54,30.06,29.92,12,4,17,0.00
2012-7-30,83.1,77.6,70.1,73.5,69.6,63.8,85,76,68,30.11,30.05,8,3,13,0.00
2012-7-31,85.0,78.3,70.0,72.7,69.0,61.8,85,73,53,30.08,29.99,8,3,11,0.00
2012-8-1,85.7,78.9,70.7,76.4,67.1,53.8,89,68,52,30.00,29.86,6,3,9,0.00
2012-8-2,86.4,80.4,73.8,77.5,74.1,70.8,94,82,70,29.96,29.88,7,2,9,0.00
2012-8-3,90.5,81.7,75.2,74.2,70.8,64.8,89,71,47,29.98,29.93,10,5,16,0.00
2012-8-4,83.6,78.8,72.0,74.3,70.7,65.8,83,76,64,29.97,29.83,8,2,12,0.00
2012-8-5,85.5,79.0,72.1,76.3,71.9,67.6,86,79,71,29.85,29.78,6,2,11,0.00
2012-8-6,85.6,79.9,74.7,76.6,72.5,68.5,87,79,66,30.13,29.81,12,5,19,0.02
2012-8-7,87.6,79.2,73.3,68.5,63.6,58.4,81,61,39,30.18,30.08,12,8,18,0.00
2012-8-8,90.9,80.7,74.6,71.6,61.0,44.0,69,52,30,30.14,30.04,10,4,14,0.00
2012-8-9,89.2,80.2,72.7,74.6,64.2,52.3,83,59,34,30.16,30.06,9,3,12,0.00
2012-8-10,86.3,80.6,73.3,77.1,72.0,63.0,84,75,61,30.12,30.01,7,2,12,0.00
2012-8-11,86.9,80.9,75.1,78.3,73.4,64.8,87,78,58,30.05,29.91,10,2,13,0.00
2012-8-12,85.9,80.5,75.1,78.8,74.5,67.9,91,82,70,29.93,29.85,8,3,13,0.00
2012-8-13,85.7,79.8,75.3,72.1,67.8,63.1,78,67,47,29.92,29.87,9,4,14,0.00
2012-8-14,83.1,77.9,70.6,73.5,69.4,63.7,81,75,67,29.93,29.88,7,3,10,0.00
2012-8-15,84.7,79.4,73.1,76.1,73.2,69.3,90,82,72,29.97,29.87,6,2,11,0.00
2012-8-16,87.8,79.2,71.3,76.6,72.6,65.6,89,81,57,30.03,29.97,8,3,14,0.00
2012-8-17,93.3,81.9,70.8,78.2,69.0,56.5,86,67,33,30.04,29.97,8,3,12,0.00
2012-8-18,93.6,83.4,74.2,77.6,64.5,50.7,77,55,27,30.07,29.99,12,3,13,0.00
2012-8-19,91.0,81.6,74.7,77.5,68.7,57.7,84,66,38,30.15,30.07,11,3,15,0.00
2012-8-20,89.1,82.3,75.4,77.7,68.8,60.6,77,64,42,30.17,30.09,5,2,7,0.00
2012-8-21,88.9,82.3,74.3,78.2,66.3,56.3,86,59,36,30.13,30.00,5,2,6,0.00
2012-8-22,90.6,82.4,73.6,78.0,67.5,57.1,83,62,35,30.04,29.96,6,3,10,0.00
2012-8-23,91.5,83.0,74.8,77.8,66.1,55.1,77,58,32,29.99,29.86,8,3,11,0.00
2012-8-24,86.0,81.3,75.4,76.8,71.4,62.4,81,72,61,29.89,29.80,7,2,11,0.00
2012-8-25,91.7,82.6,74.5,78.7,74.5,69.7,86,77,61,29.97,29.82,6,2,10,0.00
2012-8-26,85.3,79.4,75.2,74.3,67.2,64.2,82,67,50,30.14,29.97,12,7,19,0.00
2012-8-27,83.2,77.1,70.1,73.1,68.4,63.4,81,75,69,30.14,30.05,6,3,13,0.00
2012-8-28,85.6,79.1,71.9,75.5,70.6,64.5,82,75,61,30.10,30.05,8,3,13,0.00
2012-8-29,87.1,79.9,70.2,74.7,68.8,59.1,83,69,52,30.10,30.00,9,3,11,0.00
2012-8-30,85.2,78.0,71.9,74.7,68.7,62.7,81,73,64,30.14,29.98,17,5,24,0.52
2012-8-31,79.8,74.1,69.9,65.6,61.6,58.3,74,65,51,30.18,30.12,12,5,15,0.03
2012-9-1,72.1,65.2,60.8,60.5,58.2,54.7,90,79,55,30.18,30.08,9,3,12,0.10
2012-9-2,73.5,65.0,57.5,60.8,56.3,53.5,90,75,51,30.16,30.08,9,3,12,0.37
2012-9-3,79.3,70.8,61.3,64.1,56.7,51.1,83,63,38,30.14,30.00,15,4,21,0.01
2012-9-4,80.6,73.6,66.2,67.3,61.2,56.8,77,66,54,30.08,30.00,10,3,14,0.00
2012-9-5,80.8,73.2,64.5,63.9,61.5,58.0,86,68,52,30.09,30.01,7,3,10,0.00
2012-9-6,82.7,74.7,65.5,67.0,63.1,59.8,84,68,52,30.15,30.08,7,2,11,0.00
2012-9-7,83.6,75.4,67.2,70.4,66.2,62.4,87,74,53,30.18,30.12,7,3,10,0.00
2012-9-8,81.0,74.7,66.5,71.1,67.5,62.6,90,79,68,30.14,30.04,6,2,10,0.00
2012-9-9,80.8,74.9,67.8,71.4,68.0,63.8,88,79,70,30.09,30.02,6,2,13,0.00
2012-9-10,80.1,74.3,67.2,71.1,67.9,63.7,89,81,73,30.08,30.01,7,2,12,0.00
2012-9-11,84.7,75.7,67.3,74.1,67.3,59.7,88,76,58,30.06,29.99,8,3,13,0.00
2012-9-12,80.9,75.0,67.7,73.0,68.8,63.7,89,81,73,30.05,29.90,14,4,16,0.00
2012-9-13,76.5,70.5,65.3,69.9,60.6,54.4,90,72,49,29.99,29.92,15,6,20,0.09
2012-9-14,78.0,71.1,64.9,63.6,60.0,55.5,83,69,51,30.00,29.93,13,4,22,0.00
2012-9-15,79.7,72.0,61.7,70.5,62.1,52.5,76,71,65,30.00,29.95,8,4,12,0.00
2012-9-16,80.0,73.0,64.3,70.8,64.5,55.7,84,75,68,30.00,29.94,5,3,9,0.00
2012-9-17,81.2,73.5,64.5,69.0,64.5,56.7,88,74,60,30.00,29.95,5,2,8,0.00
2012-9-18,80.9,73.6,65.8,71.6,65.7,54.3,86,77,64,29.99,29.90,5,2,9,0.00
2012-9-19,77.7,73.2,67.9,69.2,64.3,60.0,91,74,57,30.10,29.92,15,6,22,0.00
2012-9-20,79.8,72.4,66.7,67.2,61.5,57.0,75,69,51,30.13,30.07,7,3,12,0.00
2012-9-21,87.8,75.7,66.3,67.0,62.8,56.4,86,67,36,30.12,29.96,9,3,17,0.00
2012-9-22,83.2,74.9,67.9,73.3,67.7,60.7,87,79,63,29.98,29.90,8,3,11,0.00
2012-9-23,79.7,75.0,69.7,72.2,69.8,66.3,89,84,76,29.98,29.85,7,2,9,0.00
2012-9-24,80.3,76.9,73.3,73.3,65.3,58.2,91,69,48,29.95,29.81,15,8,20,0.00
2012-9-25,77.3,75.7,74.3,70.2,64.1,57.9,83,68,53,29.89,29.73,18,10,23,0.00
2012-9-26,77.3,75.0,72.1,67.4,64.2,59.2,79,69,57,29.86,29.68,14,9,20,0.00
2012-9-27,71.9,67.9,63.2,65.6,61.7,57.5,90,81,68,29.99,29.86,9,4,12,0.21
2012-9-28,75.7,71.2,67.9,67.6,62.0,56.7,89,73,59,29.98,29.76,20,10,30,0.05
2012-9-29,74.2,71.7,66.2,67.9,63.3,60.0,91,75,65,29.94,29.83,12,7,17,0.25
2012-9-30,72.2,67.4,64.1,63.1,60.9,59.3,87,80,70,30.10,29.93,10,3,14,0.02
2012-10-1,73.7,67.3,58.0,64.3,60.1,54.3,88,78,67,30.17,30.09,9,4,14,0.00
2012-10-2,75.3,69.1,62.1,67.7,63.4,58.7,90,82,73,30.18,30.14,8,4,15,0.00
2012-10-3,75.6,69.1,62.9,66.7,63.2,60.0,92,82,69,30.18,30.09,5,2,7,0.00
2012-10-4,78.1,69.5,61.6,69.4,62.5,55.9,89,79,54,30.12,30.01,8,3,10,0.00
2012-10-5,83.3,73.1,63.3,67.5,64.7,59.0,90,76,48,30.09,30.02,7,4,12,0.00
2012-10-6,77.6,71.6,64.6,69.8,66.1,61.4,91,83,70,30.14,30.05,7,2,10,0.00
2012-10-7,77.3,73.8,70.4,71.5,68.9,66.0,88,85,77,30.15,30.08,8,4,11,0.00
2012-10-8,76.8,71.8,65.7,71.2,67.8,62.2,94,87,80,30.15,30.04,8,2,9,0.00
2012-10-9,79.8,74.5,64.9,71.3,68.7,60.6,90,82,70,30.05,29.98,7,2,10,0.00
2012-10-10,76.5,71.2,65.4,70.6,67.2,62.4,92,87,81,29.99,29.89,5,2,9,0.00
2012-10-11,77.0,73.4,68.0,71.5,68.8,65.4,93,86,73,29.91,29.79,10,2,11,0.00
2012-10-12,76.3,68.0,63.4,70.1,63.5,58.6,94,86,57,29.99,29.82,15,4,20,0.61
2012-10-13,73.2,65.1,61.4,61.9,60.2,57.4,92,85,64,29.98,29.91,9,3,14,0.79
2012-10-14,72.8,66.3,58.3,65.2,61.4,56.3,94,85,71,29.96,29.67,12,5,17,0.02
2012-10-15,72.5,64.3,58.3,64.8,55.7,52.1,89,74,60,30.00,29.64,21,6,27,0.03
2012-10-16,71.2,62.8,55.0,60.1,55.2,51.4,88,77,60,30.07,29.99,8,4,13,0.00
2012-10-17,78.6,69.1,59.5,63.7,59.8,55.5,88,73,51,30.03,29.88,6,3,11,0.00
2012-10-18,83.0,73.7,66.6,69.2,64.1,61.3,86,73,51,29.89,29.76,8,3,13,0.00
2012-10-19,77.3,73.9,71.0,68.3,66.5,64.7,86,78,68,29.93,29.81,6,2,10,0.01
2012-10-20,83.0,73.1,68.1,69.1,66.3,63.5,90,80,55,29.92,29.80,12,3,15,0.20
2012-10-21,70.6,67.5,62.4,65.2,59.9,54.9,92,77,64,29.99,29.83,13,8,23,0.39
2012-10-22,72.1,68.5,62.4,61.0,59.1,55.5,84,72,60,30.07,29.97,14,7,21,0.00
2012-10-23,73.7,67.4,61.3,60.7,58.4,56.3,87,74,56,30.09,30.04,10,3,20,0.00
2012-10-24,75.8,66.0,60.1,63.2,59.2,55.9,89,79,57,30.08,29.95,8,2,12,0.00
2012-10-25,74.7,66.3,59.8,62.8,60.3,57.2,91,81,62,29.97,29.75,6,3,10,0.00
2012-10-26,71.6,68.7,64.7,66.0,63.4,59.5,93,83,73,29.74,29.51,16,9,22,0.05
2012-10-27,71.7,67.8,52.5,65.0,57.8,47.8,85,71,57,29.73,29.42,15,9,23,0.01
2012-10-28,58.7,55.6,50.5,47.1,36.4,25.4,82,51,28,30.00,29.73,19,9,27,0.04
2012-10-29,62.9,56.6,49.0,46.1,43.3,39.5,80,62,49,30.02,29.88,8,2,8,0.00
2012-10-30,65.4,57.4,50.0,58.1,52.2,44.8,92,83,64,29.88,29.46,6,2,9,0.16
2012-10-31,65.4,61.8,59.1,58.8,54.8,51.4,95,78,64,29.53,29.24,17,7,23,0.68
2012-11-1,67.1,64.9,62.3,55.8,52.6,49.2,74,65,54,29.77,29.51,15,10,22,0.00
2012-11-2,67.8,62.2,53.9,60.1,54.4,50.7,90,76,61,29.99,29.77,12,4,16,0.00
2012-11-3,67.6,64.4,55.3,65.0,60.5,51.0,94,87,80,29.98,29.81,9,4,16,0.01
2012-11-4,72.2,68.2,65.9,66.8,65.6,63.7,96,91,75,29.80,29.68,13,4,15,0.02
2012-11-5,70.4,63.9,58.2,65.0,51.3,43.3,86,64,47,30.08,29.71,13,6,20,0.01
2012-11-6,63.2,58.8,54.3,52.1,49.9,47.4,89,73,57,30.27,30.06,6,1,10,0.02
2012-11-7,61.3,57.3,50.5,52.4,48.1,44.1,89,72,59,30.38,30.27,10,4,15,0.00
2012-11-8,70.8,59.0,49.3,58.0,51.4,42.9,85,76,60,30.32,30.10,6,2,11,0.00
2012-11-9,72.4,65.6,59.6,64.5,60.6,52.7,93,84,75,30.10,29.90,8,2,13,0.01
2012-11-10,66.5,65.4,64.3,64.3,60.7,56.2,94,85,74,29.91,29.75,13,8,19,0.02
2012-11-11,67.6,62.4,53.6,58.4,53.9,49.6,88,74,60,29.92,29.70,12,4,18,0.00
2012-11-12,63.5,60.4,58.3,55.9,53.0,49.4,90,77,69,30.12,29.93,17,12,26,0.07
2012-11-13,67.2,63.1,59.2,64.6,58.1,49.3,92,84,69,30.09,29.89,20,10,23,0.07
2012-11-14,69.5,64.1,58.1,64.0,59.8,56.2,94,86,73,30.06,29.94,12,5,15,2.11
2012-11-15,69.4,64.0,57.7,61.9,59.8,55.1,92,86,73,30.10,30.05,8,1,13,0.06
2012-11-16,67.1,60.3,53.2,60.5,55.8,50.3,93,85,73,30.11,30.01,0,0,1,0.00
2012-11-17,65.0,61.1,57.1,58.4,56.7,54.5,92,86,73,30.01,29.74,3,0,5,0.00
2012-11-18,66.7,60.7,55.1,61.0,56.8,52.8,94,87,72,29.83,29.69,4,0,11,0.01
2012-11-19,67.1,60.8,55.2,56.4,53.7,48.3,92,79,51,30.05,29.83,9,1,11,0.00
2012-11-20,66.1,57.8,50.8,60.4,53.6,48.2,92,86,76,30.08,30.02,8,0,10,0.00
2012-11-21,65.8,59.2,54.0,60.2,56.0,51.2,94,89,81,30.15,30.02,2,0,5,0.00
2012-11-22,66.3,58.5,53.8,59.7,55.0,51.8,94,88,75,30.19,30.14,1,0,1,0.00
2012-11-23,65.6,57.6,50.5,59.4,53.8,48.6,94,88,76,30.22,30.16,0,0,0,0.02
2012-11-24,66.6,58.5,53.0,60.0,54.6,50.7,95,87,73,30.20,30.11,2,0,2,0.00
2012-11-25,65.9,57.9,52.2,60.2,54.2,49.9,93,88,78,30.16,30.06,0,0,4,0.01
2012-11-26,66.4,60.3,54.5,61.5,57.0,51.6,93,89,82,30.06,29.79,0,0,0,0.00
2012-11-27,60.4,55.6,51.7,57.6,52.1,45.1,94,88,77,29.79,29.55,13,2,17,1.09
2012-11-28,55.5,51.8,46.3,48.0,44.6,41.8,90,77,62,29.57,29.42,11,3,16,0.39
2012-11-29,56.7,54.2,52.1,44.3,42.1,39.8,70,64,58,29.66,29.51,10,3,17,0.00
2012-11-30,54.6,48.5,43.4,45.1,41.1,36.6,90,76,52,29.72,29.59,6,0,10,0.00
2012-12-1,53.6,49.5,45.4,41.6,40.0,35.9,82,70,61,29.94,29.71,15,5,21,0.00
2012-12-2,55.2,50.2,40.3,42.6,38.6,34.0,79,65,53,30.22,29.94,9,3,14,0.00
2012-12-3,61.3,56.7,49.1,49.4,46.1,40.6,86,68,60,30.29,30.21,9,5,15,0.00
2012-12-4,62.2,57.1,46.6,52.9,45.2,33.2,91,67,39,30.21,29.98,14,7,21,0.00
2012-12-5,58.9,57.0,55.5,42.7,38.6,32.9,59,50,39,30.03,29.92,16,9,23,0.00
2012-12-6,59.1,54.1,45.1,45.3,41.5,38.0,81,63,51,30.12,30.02,11,5,18,0.00
2012-12-7,59.8,51.8,41.1,54.0,45.7,36.9,88,80,69,30.09,29.85,12,6,15,0.00
2012-12-8,61.1,54.9,47.7,48.8,44.0,40.2,80,67,54,30.21,29.86,19,7,23,0.00
2012-12-9,58.2,49.3,42.9,48.0,42.0,38.1,88,77,58,30.31,30.20,8,3,11,0.00
2012-12-10,60.0,50.4,42.9,49.6,43.8,38.1,88,78,60,30.22,30.02,8,3,11,0.00
2012-12-11,56.0,49.0,43.9,47.7,43.7,40.0,88,82,65,30.14,30.08,6,2,7,0.00
2012-12-12,51.5,48.0,44.7,48.2,44.3,41.0,93,87,77,30.13,30.02,5,2,6,0.12
2012-12-13,60.6,55.1,50.1,54.6,51.3,48.2,96,87,74,30.02,29.93,10,4,16,0.24
2012-12-14,61.2,60.0,58.7,57.7,54.8,51.5,90,83,74,29.97,29.90,14,10,22,0.00
2012-12-15,64.5,61.8,60.5,59.2,58.3,57.4,92,89,80,30.10,29.92,13,7,18,0.00
2012-12-16,66.2,61.2,56.1,59.0,54.2,44.2,92,79,45,30.17,30.06,12,5,17,0.01
2012-12-17,63.2,61.8,59.4,56.5,48.7,37.2,85,64,40,30.17,29.99,16,7,26,0.00
2012-12-18,64.5,59.0,54.0,51.9,46.1,40.1,81,62,42,30.20,30.13,9,4,13,0.00
2012-12-19,62.0,54.8,48.2,57.1,49.3,41.4,92,82,70,30.19,30.13,5,2,6,0.00
2012-12-20,63.4,57.7,51.7,55.8,53.0,48.3,92,85,67,30.13,30.00,13,5,19,0.00
2012-12-21,64.4,58.5,51.5,55.8,51.4,46.7,91,78,54,30.10,29.97,13,4,17,0.00
2012-12-22,62.8,56.3,47.8,54.3,49.4,43.8,90,78,54,30.28,30.06,15,3,21,0.00
2012-12-23,58.4,54.0,48.1,56.0,51.3,45.0,92,91,88,30.27,30.17,5,2,10,0.00
2012-12-24,59.8,54.7,49.0,57.5,52.7,47.3,97,93,87,30.18,30.02,4,2,6,0.00
2012-12-25,62.2,56.2,48.1,56.5,52.9,46.5,94,89,79,30.03,29.87,6,2,11,0.00
2012-12-26,60.8,57.2,55.2,53.7,50.6,47.0,90,79,69,30.34,29.97,10,4,18,0.00
2012-12-27,60.2,54.5,45.4,52.5,48.0,42.1,91,79,66,30.41,30.33,12,5,14,0.00
2012-12-28,64.9,57.0,49.3,54.8,50.0,44.0,91,78,68,30.48,30.34,8,3,11,0.00
2012-12-29,60.2,53.2,43.5,55.2,49.6,41.7,95,88,80,30.40,30.19,10,4,11,0.01
2012-12-30,61.2,55.2,46.9,51.2,45.1,40.6,85,69,56,30.41,30.19,10,3,15,0.00
2012-12-31,58.9,51.9,41.9,51.8,45.1,38.6,89,78,62,30.39,30.11,11,4,17,0.00
2013-1-1,58.9,56.4,51.5,52.2,47.3,43.9,82,72,58,30.11,30.01,13,7,17,0.00